Saranac Lake, NY

4:35 PM EDT on September 20, 2017 (GMT -0400)
Adirondack Regional

Weather History for KSLK - January, 2014

Change the Weather History Date:

Monday, January 20, 2014

  Actual Average Record
Temperature  
Mean Temperature 6 °F 13 °F  
Max Temperature 25 °F 25 °F 52 °F (1986)
Min Temperature -13 °F 1 °F -20 °F (1961)
Degree Days  
Heating Degree Days 59 52  
Month to date heating degree days 975 1031  
Since 1 July heating degree days 4813 4730  
Cooling Degree Days 0 0  
Month to date cooling degree days 0  
Year to date cooling degree days 0  
Moisture  
Dew Point 7 °F    
Average Humidity 80    
Maximum Humidity 88    
Minimum Humidity 72    
Precipitation  
Precipitation 0.02 in 0.06 in 0.85 in (1986)
Month to date precipitation 1.55 1.34  
Year to date precipitation 1.55 1.34  
Sea Level Pressure  
Sea Level Pressure 29.52 in    
Wind  
Wind Speed 6 mph (West)    
Max Wind Speed 20 mph    
Max Gust Speed 33 mph    
Visibility 4 miles    
Events Snow    
T = Trace of Precipitation, MM = Missing Value Source: NWS Daily Summary

Daily Weather History Graph

Daily Weather History Graph

Search for Another Location

Airport or City:

Trip Planner

Search our weather history database for the weather conditions in past years. The results will help you decide how hot, cold, wet, or windy it might be!

Date:

Astronomy

Jan. 20, 2014 Rise Set
Actual Time 7:26 AM EST 4:49 PM EST
Civil Twilight 6:54 AM EST 5:21 PM EST
Nautical Twilight 6:18 AM EST 5:57 PM EST
Astronomical Twilight 5:44 AM EST 6:31 PM EST
Moon 9:34 PM EST 9:13 AM EST
Length of Visible Light 10h 27m
Length of Day
9h 23m
Waning Gibbous, 83% of the Moon is Illuminated
Jan 20
Waning Gibbous
Jan 24
Last Quarter
Jan 30
New
Feb 6
First Quarter
Feb 14
Full

Hourly Weather History & Observations

Time (EST) Temp. Windchill Dew Point Humidity Pressure Visibility Wind Dir Wind Speed Gust Speed Precip Events Conditions
12:51 AM 25.0 °F 12.2 °F 19.9 °F 81% 29.42 in 8.0 mi WSW 16.1 mph 28.8 mph N/A   Overcast
1:51 AM 25.0 °F 12.6 °F 19.9 °F 81% 29.41 in 3.0 mi WSW 15.0 mph 32.2 mph 0.00 in Snow Light Snow
1:59 AM 25.0 °F 15.5 °F 21.0 °F 85% 29.34 in 2.0 mi WSW 9.2 mph 19.6 mph 0.00 in Snow Light Snow
2:04 AM 25.0 °F 15.5 °F 21.0 °F 85% 29.34 in 1.8 mi WSW 9.2 mph 17.3 mph 0.00 in Snow Light Snow
2:37 AM 24.1 °F 15.2 °F 21.9 °F 91% 29.35 in 2.0 mi SW 8.1 mph - 0.00 in Snow Light Snow
2:48 AM 24.1 °F 17.0 °F 21.9 °F 91% 29.42 in 1.8 mi WSW 5.8 mph - 0.00 in Snow Light Snow
3:02 AM 24.1 °F 15.2 °F 21.9 °F 91% 29.35 in 1.8 mi SW 8.1 mph - 0.00 in Snow Light Snow
3:18 AM 24.1 °F - 21.9 °F 91% 29.35 in - North - - 0.00 in   Unknown
3:37 AM 24.1 °F 15.2 °F 21.9 °F 91% 29.35 in 1.8 mi SW 8.1 mph - 0.00 in Snow Light Snow
3:51 AM 24.1 °F 16.0 °F 21.9 °F 91% 29.42 in 1.8 mi SW 6.9 mph - 0.00 in Snow Light Snow
3:58 AM 24.1 °F 15.2 °F 21.9 °F 91% 29.35 in 2.0 mi SW 8.1 mph - 0.00 in Snow Light Snow
4:10 AM 24.1 °F 13.7 °F 21.9 °F 91% 29.35 in 3.0 mi SW 10.4 mph - 0.00 in Snow Light Snow
4:16 AM 24.1 °F 15.2 °F 21.0 °F 88% 29.35 in 3.0 mi West 8.1 mph - 0.00 in Snow Light Snow
4:18 AM 24.1 °F 16.0 °F 21.9 °F 91% 29.35 in 2.5 mi WSW 6.9 mph 17.3 mph 0.00 in Snow Light Snow
4:26 AM 24.1 °F - 21.0 °F 88% 29.35 in 2.0 mi Calm Calm - 0.01 in Snow Light Snow
4:51 AM 21.0 °F 13.4 °F 18.0 °F 88% 29.43 in 2.0 mi Variable 5.8 mph - 0.01 in Snow Light Snow
5:01 AM 19.9 °F - 18.0 °F 92% 29.36 in 1.5 mi Calm Calm - 0.00 in Snow Light Snow
5:27 AM 19.9 °F - 17.1 °F 89% 29.37 in 1.5 mi Calm Calm - 0.01 in Snow Light Snow
5:47 AM 19.4 °F 12.8 °F 15.8 °F 86% 29.37 in 2.5 mi NW 4.6 mph - 0.01 in Snow Light Snow
5:51 AM 19.0 °F 13.9 °F 16.0 °F 88% 29.45 in 2.0 mi NW 3.5 mph - 0.01 in Snow Light Snow
5:58 AM 19.0 °F 12.3 °F 16.0 °F 88% 29.38 in 1.5 mi North 4.6 mph - 0.00 in Snow Light Snow
6:08 AM 18.0 °F 9.8 °F 15.1 °F 88% 29.38 in 2.0 mi North 5.8 mph - 0.00 in Snow Light Snow
6:18 AM 16.0 °F 6.3 °F 12.9 °F 88% 29.39 in 1.8 mi NNW 6.9 mph - 0.00 in Snow Light Snow
6:26 AM 16.0 °F 8.8 °F 12.0 °F 84% 29.40 in 2.0 mi Variable 4.6 mph - 0.00 in Snow Light Snow
6:49 AM 12.2 °F 0.7 °F 8.6 °F 85% 29.41 in 1.5 mi NNW 8.1 mph - 0.00 in Snow Light Snow
6:51 AM 12.9 °F 1.6 °F 9.0 °F 84% 29.49 in 1.5 mi NNW 8.1 mph - 0.00 in Snow Light Snow
7:51 AM 10.9 °F -0.8 °F 7.0 °F 84% 29.52 in 1.8 mi NNW 8.1 mph - 0.00 in Snow Light Snow
7:58 AM 10.9 °F 2.9 °F 6.1 °F 81% 29.44 in 2.0 mi Variable 4.6 mph - 0.00 in Snow Light Snow
8:06 AM 10.0 °F 0.4 °F 6.1 °F 84% 29.44 in 2.5 mi Variable 5.8 mph - 0.00 in Snow Light Snow
8:32 AM 10.9 °F 2.9 °F 6.1 °F 81% 29.45 in 3.0 mi North 4.6 mph - 0.00 in Snow Light Snow
8:51 AM - - - N/A% 29.45 in - North - - 0.00 in   Unknown
9:51 AM 10.9 °F 1.4 °F 6.1 °F 81% 29.56 in 4.0 mi Variable 5.8 mph - N/A   Haze
10:36 AM 10.9 °F 4.7 °F 6.1 °F 81% 29.49 in 2.5 mi Variable 3.5 mph - 0.00 in Snow Light Snow
10:49 AM 10.4 °F 2.2 °F 5.0 °F 79% 29.48 in 3.0 mi North 4.6 mph - 0.00 in Snow Light Snow
10:51 AM 10.9 °F 1.4 °F 5.0 °F 77% 29.56 in 3.0 mi NNW 5.8 mph - 0.00 in Snow Light Snow
10:57 AM 10.9 °F 4.7 °F 5.0 °F 77% 29.47 in 2.5 mi Variable 3.5 mph - 0.00 in Snow Light Snow
11:05 AM 10.9 °F 1.4 °F 5.0 °F 77% 29.48 in 3.0 mi WNW 5.8 mph - 0.00 in Snow Light Snow
11:41 AM 10.9 °F 1.4 °F 5.0 °F 77% 29.46 in 2.5 mi Variable 5.8 mph - 0.00 in Snow Light Snow
11:51 AM 10.0 °F 0.4 °F 5.0 °F 80% 29.54 in 3.0 mi Variable 5.8 mph - 0.00 in   Haze
12:51 PM 10.0 °F 0.4 °F 3.9 °F 76% 29.55 in 7.0 mi Variable 5.8 mph - N/A   Overcast
1:13 PM 9.0 °F -0.9 °F 3.0 °F 77% 29.48 in 1.8 mi NW 5.8 mph - 0.00 in Snow Light Snow
1:51 PM 7.0 °F -3.3 °F 1.9 °F 80% 29.59 in 1.0 mi Variable 5.8 mph - 0.00 in Snow Light Snow
2:35 PM 7.0 °F -1.7 °F 1.0 °F 77% 29.52 in 1.8 mi Variable 4.6 mph - 0.00 in Snow Light Snow
2:37 PM 8.1 °F 1.4 °F 1.9 °F 76% 29.52 in 2.0 mi Variable 3.5 mph - 0.00 in Snow Light Snow
2:51 PM 7.0 °F -5.7 °F 1.0 °F 77% 29.61 in 4.0 mi WNW 8.1 mph - 0.00 in   Haze
3:05 PM 6.1 °F -6.8 °F -0.9 °F 73% 29.55 in 10.0 mi WNW 8.1 mph - N/A   Scattered Clouds
3:30 PM 5.0 °F -5.6 °F -0.9 °F 76% 29.57 in 5.0 mi Variable 5.8 mph - N/A   Haze
3:51 PM 3.9 °F -5.3 °F -0.9 °F 80% 29.68 in 2.0 mi Variable 4.6 mph - N/A   Haze
4:10 PM 3.9 °F -6.9 °F -2.0 °F 76% 29.61 in 1.8 mi NW 5.8 mph - N/A   Haze
4:17 PM 3.0 °F -9.3 °F -2.0 °F 80% 29.61 in 3.0 mi WNW 6.9 mph - N/A   Haze
4:51 PM 1.0 °F -11.7 °F -4.0 °F 79% 29.74 in 9.0 mi WNW 6.9 mph - N/A   Scattered Clouds
5:51 PM -0.9 °F -15.3 °F -8.0 °F 72% 29.79 in 10.0 mi West 8.1 mph - N/A   Clear
6:51 PM -4.0 °F -14.6 °F -9.0 °F 79% 29.84 in 10.0 mi WSW 4.6 mph - N/A   Partly Cloudy
7:51 PM -5.1 °F - -9.9 °F 80% 29.88 in 10.0 mi Calm Calm - N/A   Clear
8:49 PM -5.8 °F -14.5 °F -11.2 °F 77% 29.77 in 8.0 mi WSW 3.5 mph - N/A   Mostly Cloudy
8:51 PM -6.0 °F -16.9 °F -11.0 °F 79% 29.77 in 8.0 mi Variable 4.6 mph - N/A   Mostly Cloudy
8:57 PM -6.0 °F -16.9 °F -11.0 °F 79% 29.78 in 9.0 mi West 4.6 mph - N/A   Scattered Clouds
9:38 PM -8.0 °F -16.9 °F -13.0 °F 79% 29.80 in 10.0 mi WSW 3.5 mph - N/A   Mostly Cloudy
9:51 PM -7.1 °F -15.9 °F -13.0 °F 75% 29.93 in 10.0 mi West 3.5 mph - N/A   Scattered Clouds
10:51 PM -11.0 °F -20.4 °F -15.0 °F 83% 29.96 in 10.0 mi SSW 3.5 mph - N/A   Clear
11:51 PM -11.0 °F -20.4 °F -15.0 °F 83% 29.98 in 10.0 mi SW 3.5 mph - N/A   Scattered Clouds